Location: Écuvilly
(49.6505°N, 2.9206°E)
Time: 16:30:35
(UTC+00:00)

USA 281 - Pass Details

Date: 17 November 2025
Orbit: 1079 x 1080 km, 106.0° (Epoch: 08 December)

Event Time Altitude Azimuth Distance (km) Brightness Sun altitude
Exits shadow 19:02:02 74° 95° (E) 1,125 3.0 -28.8°
Maximum altitude 19:02:27 77° 60° (ENE) 1,112 3.0 -28.8°
Drops below altitude 10° 19:09:01 10° 336° (NNW) 2,931 5.8 -29.9°
Sets 19:11:32 0° 335° (NNW) 3,890 6.5 -30.3°
